Zurück zum Katalog

STARLINK-11269

AktivKommunikationVLEO
NORAD 60995·PAYLOAD·🇺🇸 United States

Gestartet Sep 5, 2024 von Cape Canaveral Space Force Station

Loading…

Nächste Überflüge (nächste 24 Stunden)

TLE

AktuellSource: CelesTrak SupGP

Epoche: Sep 14, 2026, 14:05 UTC

1 60995C 24158F   26257.58729167 -.00007980  00000+0 -65722-4 0  2574
2 60995  53.1575  70.3081 0001151  94.9286 129.5851 15.69716558    17

Verfolge STARLINK-11269 in Echtzeit mit AllMySat

Download on the App Store